Location: Hauppauge
(40.8260°N, 73.2030°W)
Time: 17:05:43
(UTC-05:00)

Daily predictions for brighter satellites

Satellite Brightness Start Highest point End
(mag) Time Altitude Azimuth Time Altitude Azimuth Time Altitude Azimuth
Lacrosse 5 3.5 17:15:17 10° W 17:19:30 26° NNW 17:23:44 10° NNE
Cosmos 44 Rocket 4.1 17:15:18 10° S 17:19:57 35° ESE 17:24:33 10° NE
Cosmos 2333 4.2 17:16:19 10° S 17:21:52 67° ESE 17:27:25 10° NNE
Abrixas rocket 3.5 17:21:03 10° WNW 17:24:13 43° SW 17:27:23 10° SE
CZ-2C R/B 2.6 17:19:33 10° S 17:24:35 82° WSW 17:29:30 10° NNW
COSMO-SKYMED 1 3.4 17:21:29 10° NNE 17:25:23 31° E 17:29:15 10° SSE
YAOGAN 1 2.5 17:22:11 10° SSE 17:26:30 80° ENE 17:30:51 10° N
Cosmos 2360 Rocket 3.4 17:25:03 10° SW 17:30:20 42° WNW 17:35:40 10° N
Cosmos 2228 Rocket 3.1 17:26:15 10° N 17:30:39 64° E 17:35:03 10° SSE
Cosmos 1980 4.4 17:26:31 10° SSE 17:31:31 33° ESE 17:36:33 10° NE
Meteor 1-21 Rocket 4.5 17:27:00 10° S 17:32:55 85° W 17:38:50 10° N
Cosmos 1408 Rocket 4.4 17:31:36 10° SSW 17:35:58 55° W 17:40:20 10° N
SJ-6B 4.3 17:35:31 10° ESE 17:38:17 18° ENE 17:41:04 10° NNE
USA 116 4.0 17:35:30 10° N 17:38:40 53° WNW 17:41:41 10° SSW
CZ-4 R/B 4.4 17:34:56 10° SSE 17:39:04 84° ENE 17:43:15 10° N
Cosmos 389 Rocket 3.7 17:39:51 10° NNW 17:43:19 46° W 17:46:43 10° S
Cosmos 2346 Rocket 4.5 17:37:25 10° S 17:43:38 70° E 17:49:51 10° NNE
Cosmos 2333 Rocket 2.4 17:38:18 10° S 17:43:43 50° ESE 17:49:10 10° NE
Atlas Centaur 2 4.2 17:40:35 10° WSW 17:43:54 17° SSW 17:46:49 10° SSE
COSMOS 2441 4.4 17:39:08 10° SSE 17:44:00 85° ENE 17:48:53 10° NNW
Cosmos 2058 3.9 17:40:52 10° SE 17:44:16 25° E 17:47:40 10° NNE
Cosmos 1763 Rocket 3.8 17:41:32 10° SSW 17:46:46 72° WNW 17:51:57 10° NNE
Meteor 2-10 4.5 17:49:06 10° N 17:53:47 36° ENE 17:58:32 10° SE
Cosmos 372 Rocket 4.4 17:50:08 10° N 17:54:52 37° ENE 17:59:35 10° SE
Cosmos 2219 Rocket 2.2 17:51:40 10° SSW 17:57:19 85° ESE 18:02:58 10° NNE
Cosmos 1743 Rocket 4.0 17:53:33 10° SSW 17:58:00 68° W 18:02:29 10° N
Cosmos 2278 Rocket 2.3 17:57:26 10° NNW 18:03:01 55° ENE 18:08:35 10° SE
Cosmos 1328 Rocket 4.3 17:59:23 10° NNW 18:03:44 57° W 18:08:05 10° S
Cosmos 2142 Rocket 4.5 17:57:22 10° N 18:03:49 80° E 18:10:10 10° S
USA 215 3.2 18:00:39 10° ESE 18:07:09 69° NE 18:13:40 10° NW
Cosmos 540 Rocket 3.5 18:02:21 10° S 18:07:26 62° ESE 18:12:33 10° NNE
Cosmos 1340 Rocket 3.4 18:03:54 10° SSE 18:07:29 34° E 18:09:40 19° NE
Cosmos 2151 2.8 18:05:31 10° S 18:09:41 71° E 18:13:53 10° NNE
Cosmos 1515 Rocket 4.0 18:06:13 10° NNW 18:10:40 65° W 18:15:04 10° S
Cosmos 332 Rocket 4.4 18:06:14 10° SSW 18:10:58 58° WNW 18:15:47 10° NNE
SKYMED 2 3.8 18:09:15 10° N 18:13:36 74° WNW 18:17:55 10° SSW
Cosmos 1844 4.0 18:08:19 10° NNW 18:14:04 72° WSW 18:19:50 10° SSE
Abrixas 3.5 18:12:57 10° SSW 18:15:32 29° SE 18:15:50 28° SE
SL-14 R/B 3.1 18:12:27 10° S 18:16:21 85° E 18:20:20 10° N
Cosmos 1805 Rocket 4.0 18:13:18 10° SSE 18:17:25 38° E 18:19:55 20° NE
Cosmos 1626 3.6 18:16:02 10° SSE 18:17:50 21° ESE 18:17:50 21° ESE
Cosmos 1151 Rocket 3.1 18:16:04 10° N 18:20:20 75° W 18:24:37 10° S
Cosmos 1634 Rocket 4.3 18:14:25 10° NNW 18:20:35 70° W 18:26:42 10° S
Cosmos 1484 Rocket 4.1 18:17:43 10° S 18:21:25 42° W 18:25:13 10° NNW
DMSP B5D1-3 4.5 18:18:31 10° NNE 18:23:39 87° WNW 18:28:44 10° SSW
NOAA 12 4.0 18:19:02 10° SSE 18:24:14 74° ENE 18:29:30 10° N
COSMOS 2428 4.2 18:19:31 10° WSW 18:24:40 34° WNW 18:29:51 10° N
Cosmos 1125 Rocket 3.5 18:19:32 10° NNW 18:24:46 82° WSW 18:29:57 10° SSE
Cosmos 2237 Rocket 2.1 18:22:18 10° SSW 18:27:55 90° WNW 18:33:00 13° NNE
ALOS 2.6 18:26:38 10° SE 18:30:57 39° ENE 18:35:17 10° N
SL-16 R/B 2.5 18:27:19 10° S 18:32:35 42° ESE 18:34:21 33° ENE
Cosmos 44 3.4 18:28:14 10° SSW 18:33:32 84° WNW 18:36:41 24° NNE
Cosmos 1300 3.6 18:31:05 10° NNW 18:34:48 49° W 18:38:30 10° S
Spot 2 Rocket 3.8 18:30:05 10° SE 18:34:49 42° ENE 18:39:32 10° N
Cosmos 1726 3.3 18:33:17 10° NNW 18:36:53 44° W 18:40:29 10° SSW
Sich 1 3.5 18:37:17 10° SSE 18:40:52 42° ESE 18:40:52 42° ESE
Transit 2A Rocket 4.3 18:37:22 10° NNW 18:41:43 74° ENE 18:43:20 37° SE
Cosmos 1538 Rocket 4.3 18:36:48 10° S 18:41:44 43° ESE 18:42:15 41° E
Cosmos 2297 3.8 18:36:25 10° NNW 18:42:01 54° ENE 18:44:55 28° SE
NOSS 0 Rocket 4.4 18:36:45 10° SW 18:42:54 62° WNW 18:48:47 11° NNE
BREEZE-M DEB (TANK) 2.6 18:41:11 10° WSW 18:43:04 53° WSW 18:43:04 53° WSW
Lacrosse 5 rocket 1.4 18:40:12 10° NW 18:43:38 52° NNE 18:43:38 52° NNE
SL-19 R/B 4.3 18:38:35 10° SSE 18:44:32 69° ENE 18:50:10 10° N
Cosmos 1633 Rocket 4.1 18:40:23 10° SSE 18:42:54 29° SE 18:42:54 29° SE
FREGAT/IRIS 4.4 18:46:13 10° S 18:52:42 - NNW 18:47:34 23° S
OTV 4 2.2 18:47:05 10° WSW 18:49:25 27° SSW 18:49:25 27° SSW
CENTAUR R/B 4.1 18:47:24 10° W 18:52:48 29° NW 18:58:27 11° NNE
Resurs 01 Rocket 1.9 18:54:23 49° NNE 18:54:23 49° NNE 18:57:50 10° N
CZ-3A R/B 2.7 18:58:58 10° NW 19:03:37 75° NE 19:04:51 52° ESE
Aureole 2 Rocket 3.5 19:00:34 10° SW 19:04:05 46° WNW 19:04:38 43° NW
Lacrosse 5 4.1 19:01:51 10° NNW 19:04:07 13° N 19:04:47 13° N
Cosmos 1707 Rocket 3.5 19:01:39 10° N 19:05:59 77° W 19:10:18 10° S
FengYun 1-2 T 4.2 19:04:00 10° SSE 19:09:35 85° WSW 19:15:09 10° NNW
Cosmos 1461 3.8 19:07:44 10° SSW 19:10:31 40° SSW 19:10:31 40° SSW
SJ-6B 4.4 19:08:54 10° SSW 19:12:39 37° W 19:16:29 10° NNW
Cosmos 1666 Rocket 3.9 19:11:44 10° SSW 19:15:24 59° SW 19:15:24 59° SW
FENGYUN 3A 3.9 19:18:58 10° S 19:24:17 67° WSW 19:29:39 10° NNW
Cosmos 2333 Rocket 4.1 19:23:40 10° WSW 19:28:15 25° NW 19:32:21 12° N
Nadezhda 4 Rocket 4.4 19:26:59 10° SSW 19:33:08 61° W 19:39:24 10° N
Cosmos 1092 Rocket 4.3 19:44:11 10° SSW 19:50:25 63° W 19:51:46 51° NNW
SL-16 R/B 3.9 20:11:56 10° WSW 20:16:18 28° WNW 20:16:18 28° WNW
